Location: Batang Balui
(2.7000°N, 113.7833°E)
Time: 04:05:52
(UTC+00:00)

N. Korean satellite - Visible Passes

Search period start: 07 December 2022 00:00
Search period end: 17 December 2022 00:00
Orbit: 421 x 452 km, 97.3° (Epoch: 06 December)

Date Brightness Start Highest point End Pass type
(mag) Time Alt. Az. Time Alt. Az. Time Alt. Az.
07 Dec 7.7 21:56:42 10° NNW 21:59:12 20° WNW 22:01:41 10° SW visible
08 Dec 6.6 21:17:00 10° NNE 21:20:16 70° E 21:23:32 10° S visible
09 Dec 9.7 20:39:37 10° ENE 20:41:17 13° E 20:42:57 10° SE visible
10 Dec 6.3 21:31:18 10° N 21:34:31 59° W 21:37:44 10° SSW visible
11 Dec 8.9 20:52:49 10° NE 20:55:28 23° E 20:58:06 10° SSE visible
12 Dec 7.1 21:45:42 10° NNW 21:48:37 31° W 21:51:31 10° SW visible
13 Dec 7.7 21:06:25 10° NNE 21:09:30 41° E 21:12:34 10° S visible
15 Dec 6.3 21:20:08 10° NNE 21:23:23 80° E 21:26:37 10° S visible
16 Dec 9.6 20:42:17 10° ENE 20:44:09 14° E 20:46:00 10° SE visible
